Location: Caltech
(34.1382°N, 118.1253°W)
Time: 17:52:34
(UTC-07:00)

OPAL - Visible Passes

Search period start: 01 July 2015 00:00
Search period end: 11 July 2015 00:00
Orbit: 744 x 796 km, 100.2° (Epoch: 01 July)

Date Brightness Start Highest point End Pass type
(mag) Time Alt. Az. Time Alt. Az. Time Alt. Az.
01 Jul 8.7 22:07:05 10° N 22:11:47 41° WNW 22:16:23 10° SW visible
02 Jul 7.4 21:31:30 10° NNE 21:36:31 83° ESE 21:41:27 10° SSW visible
03 Jul 8.1 20:56:35 10° NE 21:01:02 34° E 21:05:32 10° SSE visible
03 Jul 9.7 22:35:54 10° NNW 22:39:47 23° WNW 22:43:32 10° WSW visible
04 Jul 8.2 21:59:47 10° N 22:04:37 52° WNW 22:09:23 10° SSW visible
05 Jul 7.4 21:24:22 10° NNE 21:29:18 66° ESE 21:34:13 10° S visible
05 Jul 10.3 23:05:34 10° NW 23:07:43 12° WNW 23:09:35 10° W visible
06 Jul 8.4 20:49:39 10° NE 20:53:47 27° E 20:58:00 10° SSE visible
06 Jul 9.3 22:28:25 10° N 22:32:39 28° WNW 22:36:46 10° SW visible
07 Jul 7.8 21:52:31 10° N 21:57:27 66° WNW 22:02:20 10° SSW visible
08 Jul 7.6 21:17:16 10° NNE 21:22:06 51° ESE 21:26:54 10° S visible
08 Jul 10.1 22:57:39 10° NNW 23:00:37 16° WNW 23:03:22 10° W visible
09 Jul 8.7 20:42:49 10° NE 20:46:30 21° E 20:50:20 10° SSE visible
09 Jul 9.0 22:21:01 10° N 22:25:30 35° WNW 22:29:56 10° SW visible
10 Jul 7.5 21:45:18 10° NNE 21:50:16 83° WNW 21:55:13 10° SSW visible
